WZZ8BC LQTZ-EDDK

Flight info

Callsign WZZ8BC
Flight time N/A
Altitude 34000
Route DER DCT GUBOK DCT MAGAM DCT LUMUS DCT TATZI DCT VEKIR DCT UMDAS T844 ASKIK/N0396F240 T840 GULKO GULKO1F
Aircraft A21N/M-SDE3FGHIRWY/LB1

Departure

Time N/A
Airport Tuzla International Airport (LQTZ)

Arrival

Time 2026-05-03 20:26
Airport Cologne Bonn Airport (EDDK)
Time Latitude Longitude Altitude Speed Heading
2026-05-03 20:15 50.93084 7.50269 9583 ft 295 kts 297°
2026-05-03 20:15 50.94062 7.47825 9244 ft 290 kts 297°
2026-05-03 20:15 50.95107 7.45216 8872 ft 285 kts 297°
2026-05-03 20:15 50.96111 7.42707 8512 ft 281 kts 297°
2026-05-03 20:16 50.96995 7.40493 8189 ft 277 kts 297°
2026-05-03 20:16 50.98101 7.37732 7785 ft 273 kts 297°
2026-05-03 20:16 50.99117 7.35194 7410 ft 270 kts 297°
2026-05-03 20:16 50.99946 7.33114 7101 ft 267 kts 297°
2026-05-03 20:17 51.01310 7.29667 6583 ft 265 kts 298°
2026-05-03 20:17 51.01955 7.28070 6341 ft 265 kts 297°
2026-05-03 20:18 51.03290 7.24744 5834 ft 264 kts 297°
2026-05-03 20:18 51.03939 7.23085 5588 ft 263 kts 297°
2026-05-03 20:18 51.05130 7.20101 5134 ft 263 kts 296°
2026-05-03 20:18 51.06519 7.16578 4587 ft 262 kts 297°
2026-05-03 20:19 51.07581 7.13461 4113 ft 255 kts 283°
2026-05-03 20:19 51.07817 7.11619 3857 ft 248 kts 270°
2026-05-03 20:19 51.07764 7.08271 3406 ft 243 kts 263°
2026-05-03 20:20 51.07623 7.05091 3022 ft 235 kts 263°
2026-05-03 20:20 51.07441 7.00491 2984 ft 210 kts 264°
2026-05-03 20:20 51.07170 6.97587 2959 ft 198 kts 246°
2026-05-03 20:21 51.06288 6.95460 2981 ft 197 kts 229°
2026-05-03 20:21 51.05488 6.94087 2987 ft 198 kts 228°
2026-05-03 20:21 51.04062 6.92547 2960 ft 203 kts 193°
2026-05-03 20:21 51.02413 6.92865 2993 ft 213 kts 163°
2026-05-03 20:22 50.99883 6.95677 2987 ft 220 kts 142°
2026-05-03 20:22 50.98490 6.97822 3006 ft 195 kts 142°
2026-05-03 20:23 50.96348 7.00966 2442 ft 187 kts 144°
2026-05-03 20:23 50.95386 7.02350 2196 ft 187 kts 144°
2026-05-03 20:23 50.94431 7.03718 1942 ft 182 kts 144°
2026-05-03 20:23 50.93522 7.05025 1722 ft 168 kts 144°
2026-05-03 20:24 50.92727 7.06172 1489 ft 153 kts 143°
2026-05-03 20:24 50.92118 7.07056 1310 ft 146 kts 143°
2026-05-03 20:24 50.90502 7.09356 948 ft 146 kts 142°
2026-05-03 20:25 50.89757 7.10417 735 ft 145 kts 140°
2026-05-03 20:25 50.89006 7.11498 532 ft 144 kts 138°
2026-05-03 20:25 50.88276 7.12574 333 ft 142 kts 138°
2026-05-03 20:25 50.87576 7.13589 242 ft 125 kts 138°
2026-05-03 20:26 50.87034 7.14373 258 ft 81 kts 138°
2026-05-03 20:26 50.86697 7.14859 272 ft 47 kts 135°
2026-05-03 20:26 50.86533 7.15100 279 ft 27 kts 139°
2026-05-03 20:26 50.86392 7.15255 283 ft 23 kts 156°
2026-05-03 20:27 50.86256 7.15323 285 ft 13 kts 168°
2026-05-03 20:27 50.86180 7.15347 285 ft 3 kts 168°
2026-05-03 20:27 50.86151 7.15357 285 ft 4 kts 168°
2026-05-03 20:27 50.86115 7.15356 285 ft 5 kts 191°
2026-05-03 20:28 50.86077 7.15325 285 ft 7 kts 218°
2026-05-03 20:28 50.86047 7.15246 283 ft 10 kts 254°
2026-05-03 20:28 50.86056 7.15123 280 ft 14 kts 303°
2026-05-03 20:28 50.86132 7.15006 278 ft 16 kts 316°
2026-05-03 20:29 50.86221 7.14877 276 ft 18 kts 317°
2026-05-03 20:29 50.86314 7.14745 273 ft 19 kts 318°
2026-05-03 20:29 50.86414 7.14600 270 ft 20 kts 317°
2026-05-03 20:29 50.86510 7.14459 266 ft 21 kts 318°
2026-05-03 20:30 50.86606 7.14327 264 ft 19 kts 319°
2026-05-03 20:30 50.86702 7.14190 259 ft 21 kts 317°
2026-05-03 20:30 50.86950 7.13884 250 ft 23 kts 317°
2026-05-03 20:31 50.87072 7.13705 246 ft 24 kts 317°
2026-05-03 20:31 50.87201 7.13521 242 ft 24 kts 317°
2026-05-03 20:31 50.87330 7.13339 239 ft 24 kts 318°
2026-05-03 20:31 50.87455 7.13151 236 ft 24 kts 317°
2026-05-03 20:32 50.87579 7.12971 234 ft 24 kts 317°
2026-05-03 20:32 50.87701 7.12788 232 ft 24 kts 317°
2026-05-03 20:32 50.87826 7.12626 230 ft 16 kts 338°
2026-05-03 20:32 50.87933 7.12589 230 ft 16 kts 329°
2026-05-03 20:33 50.88011 7.12477 229 ft 16 kts 317°
2026-05-03 20:33 50.88087 7.12345 227 ft 17 kts 299°
2026-05-03 20:33 50.88139 7.12183 225 ft 18 kts 303°
2026-05-03 20:33 50.88214 7.12020 222 ft 19 kts 306°
2026-05-03 20:34 50.88226 7.11937 221 ft 6 kts 229°
2026-05-03 20:34 50.88194 7.11899 221 ft 0 kts 214°